San Diego, California
Traffic Map
Current Weather Conditions
San Diego, California
Scattered Clouds
Scattered Clouds
26°
Feels Like: 27°
Wind Chill: 26° Ceiling: Unl
Heat Index: 27° Visibility: 10mi
Dew Point: 17° Wind: 6mph
Humidity: 58% Direction: 300° (WNW)
Pressure: 29.96in Gusts: 0mph
Raw Report DataKSAN 301851Z 30005KT 10SM FEW008 SCT250 26/17 A2996 RMK AO2 SLP146 T02610172
Traffic Incident Summary
Active as of:
Severity:
Category:
InformationThere was an issue retrieving the traffic information for this location. Please try a different location or try again shortly.
Advertisements
Track Severe Weather on mobile